sat.trackr.live / text

‹ back to catalog

ONEWEB-0201

NORAD 48241 · 2021-031AH

PAYLOAD ACTIVE UNKNOWN

§ Identity

Operator
Country
UK
Launch date
2021-04-25
Launch site
VOSTO
Launch vehicle
Mass (kg)
RCS (m²)

Purposes: comms

External: N2YO · Heavens-Above · Gunter

§ Orbital elements

Epoch: 2026-09-13T00:55:03.597312Z

Period
109.55 min
Inclination
87.8898°
Eccentricity
0.0001736
Mean motion
13.14502214 rev/d
Perigee alt
1,204.5 km
Apogee alt
1,207.1 km
Semi-major
7,583.9 km
B*
6.1284e-4
RAAN
272.1948°
Arg perigee
102.3294°
Mean anomaly
257.8030°
Rev number
25,992

§ Raw data

ONEWEB-02011 48241U 21031AH  26256.03823608  .00000240  00000+0  61284-3 0  99962 48241  87.8898 272.1948 0001736 102.3294 257.8030 13.14502214259925

JSON: /api/v1/satellites/48241 · /tle

For live sub-satellite position, see the globe view (requires WebGL).

§ Visibility from observer

Set your observer location to see the next 7 days of passes ≥ 10°. The values pass through the URL so the page stays shareable.

No JS? Fill the form by hand. The geolocation button needs JavaScript.